QPF
0.01 0.00 0.00 0.00 0.00 0.00 0.00 0.00 0.00 0.00 0.00 0.00 0.00 0.00 0.00 0.00 0.00 0.00 0.00 0.00 0.00 0.00 0.00 0.00 0.00 0.00 0.00 0.00 0.00 0.00 0.00 0.00 0.00 0.00 0.00 0.00 0.00 0.00 0.00 0.01 0.01 0.01 0.00 0.00
0.01 0.01 0.00 0.00 0.00 0.00 0.00 0.00 0.00 0.00 0.00 0.00 0.00 0.00 0.00 0.00 0.00 0.00 0.00 0.00 0.00 0.00 0.00 0.00 0.00 0.00 0.00 0.00 0.00 0.00 0.00 0.00 0.00 0.00 0.00 0.00 0.00 0.00 0.00 0.00 0.01 0.01 0.00 0.00
0.00 0.00 0.00 0.00 0.00 0.00 0.00 0.00 0.00 0.00 0.00 0.00 0.00 0.00 0.00 0.00 0.00 0.00 0.00 0.00 0.00 0.00 0.00 0.00 0.00 0.00 0.00 0.00 0.00 0.00 0.00 0.00 0.00 0.00 0.00 0.00 0.00 0.00 0.00 0.00 0.00 0.00 0.00 0.00
0.02 0.00 0.00 0.00 0.00 0.00 0.00 0.00 0.00 0.00 0.00 0.00 0.00 0.00 0.00 0.00 0.00 0.00 0.00 0.00 0.00 0.00 0.00 0.00 0.00 0.00 0.00 0.00 0.00 0.00 0.00 0.00 0.00 0.00 0.00 0.00 0.00 0.00 0.00 0.00 0.00 0.00 0.00 0.00
0.03 0.00 0.00 0.00 0.00 0.00 0.00 0.00 0.00 0.00 0.00 0.00 0.00 0.00 0.00 0.00 0.00 0.00 0.00 0.00 0.00 0.00 0.00 0.00 0.00 0.00 0.00 0.00 0.00 0.00 0.00 0.00 0.00 0.00 0.00 0.00 0.00 0.00 0.00 0.00 0.00 0.00 0.00 0.00
0.09 0.00 0.04 0.01 0.00 0.00 0.00 0.01 0.01 0.01 0.03 0.07 0.00 0.00 0.00 0.00 0.00 0.00 0.00 0.00 0.00 0.00 0.00 0.00 0.00 0.00 0.00 0.00 0.00 0.00 0.00 0.00 0.00 0.00 0.00 0.00 0.00 0.00 0.00 0.00 0.00 0.00 0.00 0.00
0.07 0.08 0.05 0.03 0.04 0.03 0.05 0.04 0.09 0.13 0.14 0.03 0.00 0.00 0.00 0.00 0.00 0.00 0.00 0.00 0.00 0.00 0.00 0.00 0.00 0.00 0.00 0.00 0.01 0.00 0.00 0.00 0.00 0.00 0.00 0.00 0.00 0.00 0.00 0.00 0.00 0.00 0.00 0.00
0.01 0.08 0.23 0.27 0.08 0.06 0.07 0.03 0.02 0.02 0.01 0.00 0.00 0.02 0.00 0.00 0.00 0.00 0.00 0.00 0.00 0.00 0.00 0.00 0.00 0.00 0.00 0.00 0.01 0.01 0.00 0.00 0.00 0.00 0.00 0.00 0.00 0.00 0.00 0.00 0.00 0.00 0.00 0.00
0.04 0.04 0.04 0.13 0.16 0.07 0.10 0.09 0.01 0.00 0.00 0.00 0.04 0.01 0.00 0.00 0.00 0.00 0.00 0.00 0.00 0.00 0.00 0.00 0.00 0.00 0.00 0.00 0.00 0.01 0.01 0.01 0.00 0.00 0.00 0.00 0.00 0.00 0.00 0.00 0.00 0.00 0.00 0.00
0.04 0.05 0.03 0.03 0.11 0.10 0.08 0.08 0.09 0.10 0.03 0.02 0.08 0.01 0.00 0.00 0.00 0.00 0.00 0.00 0.00 0.00 0.00 0.00 0.00 0.00 0.00 0.00 0.00 0.01 0.00 0.01 0.02 0.01 0.00 0.00 0.00 0.00 0.00 0.00 0.00 0.00 0.00 0.00
0.01 0.05 0.05 0.03 0.13 0.18 0.11 0.13 0.13 0.08 0.01 0.01 0.04 0.06 0.04 0.00 0.00 0.00 0.00 0.00 0.00 0.00 0.00 0.00 0.00 0.00 0.00 0.00 0.00 0.01 0.00 0.01 0.02 0.01 0.01 0.00 0.00 0.00 0.00 0.00 0.00 0.00 0.00 0.00
0.01 0.04 0.05 0.10 0.07 0.11 0.12 0.07 0.09 0.14 0.08 0.01 0.06 0.03 0.01 0.01 0.01 0.00 0.00 0.00 0.00 0.00 0.00 0.00 0.00 0.00 0.00 0.00 0.00 0.00 0.00 0.00 0.00 0.00 0.00 0.00 0.00 0.00 0.00 0.00 0.00 0.00 0.00 0.00
0.00 0.04 0.06 0.08 0.07 0.02 0.06 0.11 0.05 0.06 0.07 0.05 0.05 0.04 0.01 0.01 0.01 0.00 0.00 0.00 0.00 0.00 0.00 0.00 0.00 0.00 0.00 0.00 0.00 0.00 0.00 0.00 0.00 0.00 0.00 0.00 0.00 0.00 0.00 0.00 0.00 0.00 0.00 0.00
0.00 0.02 0.02 0.03 0.04 0.04 0.04 0.04 0.08 0.08 0.08 0.08 0.05 0.03 0.01 0.01 0.00 0.00 0.00 0.00 0.00 0.00 0.00 0.00 0.00 0.00 0.00 0.00 0.00 0.00 0.00 0.00 0.00 0.00 0.00 0.00 0.00 0.00 0.00 0.00 0.00 0.00 0.00 0.00
0.00 0.02 0.01 0.02 0.01 0.00 0.02 0.02 0.03 0.10 0.11 0.06 0.06 0.04 0.03 0.02 0.00 0.00 0.00 0.00 0.00 0.00 0.00 0.00 0.00 0.00 0.00 0.00 0.00 0.00 0.00 0.00 0.00 0.00 0.01 0.01 0.00 0.00 0.00 0.00 0.00 0.00 0.00 0.00
0.00 0.01 0.00 0.00 0.00 0.00 0.00 0.01 0.01 0.03 0.06 0.06 0.03 0.01 0.00 0.00 0.00 0.00 0.00 0.00 0.00 0.00 0.00 0.00 0.00 0.00 0.00 0.00 0.00 0.00 0.00 0.00 0.00 0.00 0.01 0.01 0.03 0.01 0.00 0.00 0.00 0.00 0.00 0.00
0.00 0.01 0.01 0.00 0.00 0.00 0.00 0.00 0.01 0.02 0.02 0.02 0.03 0.02 0.00 0.00 0.00 0.00 0.00 0.00 0.00 0.00 0.00 0.00 0.00 0.00 0.00 0.00 0.00 0.00 0.00 0.00 0.00 0.00 0.01 0.01 0.02 0.02 0.01 0.01 0.02 0.01 0.00 0.00
0.00 0.01 0.01 0.01 0.00 0.00 0.00 0.00 0.00 0.01 0.01 0.00 0.00 0.00 0.00 0.00 0.00 0.00 0.00 0.00 0.00 0.00 0.00 0.00 0.00 0.00 0.00 0.00 0.00 0.00 0.00 0.00 0.00 0.00 0.01 0.01 0.04 0.05 0.04 0.02 0.01 0.01 0.00 0.00
0.00 0.00 0.00 0.00 0.00 0.00 0.00 0.00 0.00 0.00 0.00 0.00 0.00 0.00 0.00 0.00 0.00 0.00 0.00 0.00 0.00 0.00 0.00 0.00 0.00 0.00 0.00 0.00 0.00 0.00 0.00 0.00 0.00 0.00 0.00 0.00 0.00 0.01 0.03 0.05 0.03 0.01 0.00 0.00
0.00 0.00 0.00 0.00 0.00 0.00 0.00 0.00 0.00 0.00 0.00 0.00 0.00 0.00 0.00 0.00 0.00 0.00 0.00 0.00 0.00 0.00 0.00 0.00 0.00 0.00 0.00 0.00 0.00 0.00 0.00 0.00 0.00 0.00 0.00 0.00 0.00 0.00 0.01 0.04 0.05 0.05 0.01 0.02
0.00 0.00 0.00 0.00 0.00 0.00 0.00 0.00 0.00 0.00 0.00 0.00 0.00 0.00 0.00 0.00 0.01 0.00 0.00 0.00 0.00 0.00 0.00 0.00 0.00 0.00 0.00 0.00 0.00 0.00 0.00 0.00 0.00 0.00 0.00 0.00 0.00 0.00 0.00 0.00 0.00 0.04 0.05 0.13
0.00 0.00 0.00 0.00 0.00 0.00 0.00 0.00 0.00 0.00 0.00 0.00 0.00 0.00 0.00 0.00 0.00 0.00 0.00 0.00 0.00 0.00 0.00 0.00 0.00 0.00 0.00 0.00 0.00 0.00 0.00 0.00 0.00 0.00 0.00 0.00 0.00 0.00 0.00 0.00 0.01 0.03 0.04 0.03
0.00 0.00 0.00 0.00 0.00 0.00 0.00 0.00 0.00 0.01 0.01 0.01 0.01 0.00 0.00 0.00 0.00 0.00 0.00 0.00 0.00 0.00 0.00 0.00 0.00 0.00 0.00 0.00 0.00 0.00 0.00 0.00 0.00 0.00 0.00 0.00 0.00 0.00 0.00 0.00 0.01 0.01 0.05 0.04
0.00 0.00 0.00 0.00 0.00 0.00 0.00 0.00 0.00 0.00 0.00 0.00 0.00 0.01 0.00 0.01 0.00 0.00 0.00 0.00 0.00 0.00 0.00 0.00 0.00 0.00 0.00 0.00 0.00 0.00 0.00 0.00 0.00 0.00 0.00 0.00 0.00 0.00 0.00 0.00 0.00 0.01 0.01 0.01
0.00 0.00 0.00 0.00 0.00 0.00 0.00 0.00 0.00 0.00 0.00 0.00 0.00 0.00 0.00 0.01 0.00 0.01 0.01 0.00 0.01 0.00 0.00 0.00 0.00 0.00 0.00 0.00 0.00 0.00 0.00 0.00 0.00 0.00 0.00 0.00 0.00 0.00 0.00 0.00 0.00 0.00 0.01 0.02
0.00 0.00 0.00 0.00 0.00 0.00 0.00 0.00 0.00 0.00 0.00 0.00 0.00 0.00 0.00 0.00 0.01 0.01 0.01 0.00 0.01 0.00 0.00 0.00 0.00 0.00 0.00 0.00 0.00 0.00 0.00 0.00 0.01 0.00 0.00 0.00 0.00 0.00 0.00 0.00 0.00 0.00 0.01 0.03
MSLP
1006.08 1005.96 1003.09 1001.36 1002.51 1003.33 1002.65 1002.34 1002.35 1002.57 1003.62 1004.72 1004.52 1005.06 1005.08 1006.01 1006.53 1006.75 1006.94 1007.02 1008.07 1008.56 1008.92 1009.19 1009.23 1009.11 1009.15 1009.36 1009.58 1009.83 1010.11 1010.52 1010.99 1011.51 1012.22 1013.22 1013.60 1014.25 1014.64 1014.81 1015.30 1015.76 1016.02 1016.51
1005.64 1003.39 1001.33 1003.33 1003.31 1003.41 1003.16 1002.19 1001.51 1002.81 1003.42 1005.03 1004.77 1004.75 1004.96 1005.27 1006.27 1007.76 1008.62 1008.87 1009.16 1009.41 1009.55 1009.59 1009.61 1009.50 1009.09 1009.28 1009.31 1009.56 1009.75 1010.05 1010.51 1011.06 1011.66 1012.48 1013.12 1013.98 1014.52 1014.88 1015.25 1015.66 1016.07 1016.46
1003.88 1001.01 1003.78 1003.29 1002.78 1002.51 1002.22 1001.94 1002.08 1002.28 1004.60 1005.38 1005.45 1004.64 1004.70 1005.74 1007.28 1008.99 1009.76 1010.06 1010.07 1010.16 1010.09 1010.03 1009.86 1009.69 1009.22 1009.05 1009.23 1009.18 1009.39 1009.61 1009.99 1010.64 1011.50 1012.23 1012.90 1013.55 1014.25 1014.62 1015.05 1015.50 1015.92 1016.53
1004.14 1002.44 1002.79 1002.96 1002.31 1002.49 1001.67 1002.39 1003.39 1003.43 1004.26 1004.93 1005.96 1004.06 1004.20 1006.00 1008.42 1009.76 1010.60 1010.95 1011.11 1011.16 1011.12 1011.38 1011.48 1011.10 1009.88 1009.15 1009.08 1009.10 1009.02 1009.29 1009.54 1010.27 1011.17 1011.56 1011.97 1012.57 1013.18 1013.84 1014.41 1015.08 1015.65 1016.19
1003.39 1003.13 1003.19 1002.62 1002.26 1002.89 1001.56 1003.29 1003.57 1004.26 1004.50 1005.53 1005.39 1005.64 1005.11 1006.74 1008.89 1010.51 1011.75 1012.12 1012.23 1012.23 1012.41 1012.76 1012.68 1012.16 1011.63 1010.53 1009.59 1009.30 1008.98 1009.03 1009.21 1009.86 1010.71 1011.09 1011.55 1011.92 1012.55 1013.20 1013.77 1014.67 1015.40 1015.84
1005.76 1004.24 1004.56 1003.02 1003.73 1003.36 1003.96 1004.41 1004.54 1004.74 1005.30 1005.53 1005.03 1005.93 1006.08 1007.72 1009.25 1011.59 1012.70 1013.25 1013.46 1013.41 1013.41 1013.83 1013.70 1013.14 1012.53 1011.74 1010.21 1009.60 1009.23 1009.04 1009.16 1009.89 1010.57 1010.78 1010.97 1011.20 1011.63 1012.27 1012.91 1013.92 1014.90 1015.52
1006.57 1006.51 1005.89 1005.55 1004.56 1004.89 1005.09 1005.23 1004.96 1005.20 1004.67 1003.72 1005.30 1006.82 1007.76 1010.65 1012.19 1013.43 1014.31 1014.53 1014.55 1014.22 1014.16 1014.44 1014.34 1013.90 1013.30 1012.63 1011.70 1010.36 1009.67 1009.51 1009.44 1010.34 1010.72 1010.62 1010.78 1010.98 1011.12 1011.54 1012.37 1013.23 1014.24 1015.01
1008.53 1008.32 1008.46 1008.33 1007.74 1005.36 1005.19 1004.11 1002.74 1002.39 1003.21 1004.00 1005.67 1007.57 1011.12 1012.75 1014.08 1015.26 1015.93 1015.91 1015.59 1015.27 1015.25 1015.23 1015.18 1014.80 1014.21 1013.47 1012.67 1011.72 1010.56 1010.15 1009.98 1010.33 1010.56 1010.47 1010.60 1010.88 1010.97 1011.29 1011.88 1012.61 1013.56 1014.25
1011.39 1010.04 1009.95 1009.92 1009.95 1008.69 1006.07 1004.34 1003.00 1002.75 1003.04 1004.58 1007.77 1011.61 1013.54 1014.71 1015.72 1016.44 1016.95 1017.12 1016.86 1016.41 1015.97 1015.75 1015.51 1015.25 1014.77 1014.17 1013.59 1012.92 1011.86 1010.85 1010.56 1010.54 1010.59 1010.76 1010.82 1011.07 1011.35 1011.60 1011.84 1012.27 1012.83 1013.54
1013.00 1011.82 1011.35 1011.52 1010.83 1010.27 1009.21 1006.21 1005.37 1004.63 1004.25 1005.35 1008.90 1011.87 1013.88 1016.04 1017.25 1017.75 1018.01 1018.06 1017.89 1017.40 1016.77 1016.35 1015.90 1015.57 1015.23 1014.82 1014.36 1013.57 1012.80 1011.86 1011.10 1010.53 1010.68 1010.96 1011.31 1011.55 1011.75 1011.97 1012.04 1012.26 1012.70 1013.04
1013.90 1013.23 1012.71 1012.36 1014.43 1014.11 1011.78 1009.72 1008.12 1006.40 1005.53 1005.60 1010.47 1015.44 1018.27 1019.14 1019.69 1019.49 1019.35 1019.19 1018.72 1018.12 1017.56 1017.01 1016.54 1016.05 1015.58 1015.29 1014.92 1014.44 1013.52 1012.88 1012.04 1011.49 1011.21 1010.72 1011.01 1011.32 1011.59 1011.80 1011.98 1012.26 1012.58 1012.89
1014.39 1014.22 1014.09 1015.05 1016.02 1015.96 1015.98 1014.62 1012.55 1010.14 1007.67 1008.49 1011.61 1018.32 1020.93 1021.47 1021.69 1021.40 1020.74 1020.25 1019.73 1019.09 1018.36 1017.74 1017.14 1016.48 1015.99 1015.53 1015.08 1014.70 1014.24 1013.53 1013.08 1012.36 1011.70 1010.87 1010.87 1011.15 1011.32 1011.53 1011.78 1011.86 1012.09 1012.25
1015.21 1015.12 1015.30 1016.36 1016.58 1016.85 1017.71 1016.94 1015.32 1013.47 1011.80 1013.29 1014.83 1020.63 1022.64 1022.90 1022.87 1022.54 1021.93 1021.27 1020.56 1019.81 1019.22 1018.62 1018.11 1017.39 1016.71 1016.18 1015.58 1015.04 1014.64 1014.11 1013.67 1012.98 1012.06 1011.20 1010.76 1010.84 1010.96 1011.04 1011.17 1011.51 1011.88 1012.02
1016.51 1017.51 1017.63 1018.63 1020.52 1021.03 1020.72 1019.27 1018.35 1016.22 1015.69 1017.74 1019.92 1022.42 1023.91 1024.05 1023.94 1023.40 1022.76 1022.15 1021.34 1020.75 1020.14 1019.59 1019.00 1018.35 1017.57 1016.78 1016.11 1015.57 1014.99 1014.47 1013.84 1013.21 1012.39 1011.50 1010.88 1010.61 1010.69 1010.80 1010.84 1011.13 1011.50 1011.78
1017.65 1018.98 1019.50 1020.62 1021.38 1021.72 1022.16 1022.25 1021.69 1020.29 1020.73 1020.75 1024.02 1024.53 1025.47 1025.14 1024.83 1024.20 1023.69 1022.86 1022.19 1021.57 1020.92 1020.43 1019.81 1019.10 1018.33 1017.36 1016.60 1015.93 1015.35 1014.70 1014.01 1013.21 1012.41 1011.64 1010.97 1010.26 1010.38 1010.63 1010.64 1010.80 1011.25 1011.47
1018.33 1019.09 1020.14 1020.68 1020.80 1021.96 1023.37 1024.47 1024.30 1024.96 1025.33 1024.82 1025.53 1025.42 1026.21 1025.61 1025.18 1024.62 1024.05 1023.55 1023.22 1022.66 1021.98 1021.16 1020.58 1019.84 1018.98 1018.05 1017.08 1016.27 1015.52 1014.80 1014.16 1013.26 1012.49 1011.74 1010.90 1010.13 1010.07 1010.29 1010.40 1010.66 1011.05 1011.31
1019.67 1019.55 1019.59 1020.40 1021.42 1021.77 1024.22 1026.83 1026.98 1027.87 1028.29 1027.44 1026.85 1027.42 1026.65 1025.79 1025.43 1024.88 1024.45 1024.62 1024.19 1023.55 1022.80 1021.91 1021.02 1020.34 1019.66 1018.73 1017.77 1016.54 1015.63 1014.85 1014.09 1013.34 1012.48 1011.70 1011.06 1010.29 1009.92 1010.04 1010.20 1010.49 1010.79 1011.08
1021.22 1020.14 1020.10 1020.71 1021.25 1023.54 1026.36 1027.25 1027.68 1027.77 1027.70 1027.64 1027.76 1027.67 1027.21 1026.58 1025.69 1024.86 1025.53 1025.28 1024.76 1024.07 1023.23 1022.41 1021.62 1020.68 1019.94 1018.95 1017.86 1016.77 1015.76 1014.95 1014.08 1013.20 1012.34 1011.76 1011.26 1010.57 1009.71 1009.76 1009.98 1010.15 1010.36 1010.75
1022.13 1021.73 1021.68 1021.86 1023.33 1026.14 1027.20 1028.16 1028.54 1028.24 1028.33 1028.68 1028.31 1028.34 1027.86 1026.92 1025.28 1024.90 1025.91 1025.99 1025.48 1024.60 1023.80 1023.00 1022.10 1021.25 1020.07 1018.93 1017.82 1016.78 1015.82 1014.99 1014.07 1012.99 1012.32 1011.90 1011.47 1010.79 1010.21 1009.60 1009.55 1009.68 1009.95 1010.31
1023.46 1022.70 1022.51 1023.29 1024.40 1026.40 1028.64 1028.92 1028.65 1028.63 1028.77 1029.56 1029.53 1029.29 1028.69 1027.83 1026.72 1026.93 1026.89 1026.53 1025.77 1024.97 1024.17 1023.30 1022.26 1021.38 1020.33 1019.25 1017.94 1017.17 1016.13 1015.36 1014.26 1013.19 1012.48 1011.88 1011.52 1011.10 1010.65 1010.16 1009.54 1009.30 1009.44 1009.59
1025.57 1024.82 1024.61 1024.93 1026.24 1028.31 1029.61 1029.30 1028.80 1029.04 1030.94 1030.68 1030.81 1030.56 1029.69 1029.32 1029.31 1028.37 1027.74 1027.01 1026.30 1025.46 1024.46 1023.58 1022.68 1021.76 1020.88 1019.89 1019.26 1017.86 1016.51 1015.62 1014.59 1013.69 1012.65 1011.89 1011.61 1011.35 1010.96 1010.44 1009.99 1009.49 1009.24 1009.30
1028.66 1028.18 1027.69 1027.34 1027.93 1029.74 1030.74 1030.16 1030.89 1032.57 1032.26 1031.81 1031.47 1031.32 1031.16 1030.62 1029.94 1029.41 1028.69 1027.70 1026.76 1025.59 1024.48 1023.92 1022.85 1022.02 1021.37 1020.58 1019.91 1018.75 1017.46 1016.18 1014.96 1013.97 1012.90 1012.07 1011.68 1011.50 1011.08 1010.72 1010.25 1009.81 1009.35 1009.45
1030.37 1031.09 1030.63 1030.67 1031.05 1031.85 1032.34 1032.88 1033.27 1033.36 1033.22 1032.93 1032.86 1032.45 1032.06 1031.38 1030.43 1029.51 1028.66 1027.83 1026.91 1026.21 1025.35 1024.55 1023.24 1022.32 1021.62 1020.89 1020.10 1019.17 1018.07 1017.12 1016.15 1014.87 1013.31 1012.27 1011.72 1011.25 1011.23 1010.97 1010.68 1010.35 1009.97 1009.85
1031.44 1031.99 1031.65 1032.09 1032.29 1032.76 1032.99 1033.42 1033.72 1033.92 1033.91 1033.73 1033.59 1033.32 1032.69 1032.05 1031.13 1030.27 1029.40 1028.56 1027.84 1027.13 1026.25 1025.11 1024.09 1023.08 1022.12 1021.22 1020.47 1019.63 1018.75 1017.60 1016.71 1015.42 1013.69 1012.65 1011.77 1011.40 1011.33 1011.22 1011.11 1010.74 1010.57 1010.33
1032.69 1032.71 1032.89 1032.78 1033.11 1033.01 1033.29 1033.75 1034.31 1034.42 1034.39 1034.14 1033.79 1033.32 1032.91 1032.44 1031.64 1031.02 1030.13 1029.31 1028.57 1027.52 1026.54 1025.82 1025.23 1024.20 1023.18 1022.11 1021.21 1020.23 1019.46 1018.22 1017.01 1015.63 1013.96 1012.84 1012.24 1011.60 1011.67 1011.70 1011.36 1011.11 1010.86 1010.75
1033.28 1033.69 1033.71 1033.54 1034.26 1034.54 1034.17 1034.28 1034.50 1034.61 1034.56 1034.37 1034.13 1033.53 1033.15 1032.78 1032.10 1031.09 1030.09 1029.52 1028.79 1028.03 1027.05 1026.43 1025.89 1025.11 1024.13 1023.20 1022.10 1021.06 1019.75 1018.32 1017.13 1015.64 1014.00 1013.31 1012.47 1011.81 1011.98 1012.12 1011.71 1011.56 1011.28 1011.08
Thickness
5558 5556 5582 5612 5608 5607 5619 5619 5617 5633 5623 5615 5625 5623 5634 5631 5635 5638 5643 5648 5643 5644 5648 5651 5656 5664 5669 5672 5674 5676 5678 5678 5677 5676 5674 5668 5667 5665 5663 5664 5662 5660 5661 5661
5537 5552 5608 5589 5587 5583 5589 5601 5615 5617 5608 5593 5611 5612 5622 5626 5627 5616 5615 5620 5624 5627 5632 5637 5642 5648 5658 5660 5666 5668 5671 5672 5672 5671 5669 5665 5662 5658 5656 5655 5654 5654 5654 5654
5528 5588 5566 5567 5573 5574 5579 5587 5598 5603 5577 5577 5589 5597 5606 5609 5601 5593 5595 5600 5607 5612 5618 5625 5631 5638 5646 5652 5654 5659 5661 5664 5665 5663 5659 5657 5655 5653 5650 5650 5648 5647 5646 5645
5510 5567 5547 5545 5552 5562 5561 5580 5573 5578 5561 5553 5567 5584 5604 5588 5570 5572 5575 5581 5588 5594 5601 5605 5608 5614 5632 5642 5645 5649 5653 5654 5656 5654 5650 5649 5649 5647 5646 5644 5642 5640 5639 5638
5508 5530 5521 5524 5542 5547 5562 5554 5553 5556 5553 5545 5553 5556 5587 5563 5553 5551 5551 5558 5566 5574 5579 5578 5584 5596 5604 5619 5630 5635 5641 5644 5646 5646 5642 5641 5641 5642 5640 5639 5638 5635 5633 5633
5459 5495 5479 5519 5521 5529 5531 5520 5527 5533 5529 5507 5551 5548 5564 5552 5545 5531 5532 5533 5541 5551 5559 5557 5565 5575 5585 5594 5614 5623 5629 5633 5635 5633 5631 5632 5635 5636 5636 5636 5635 5631 5627 5626
5455 5450 5469 5459 5501 5500 5499 5497 5499 5498 5502 5525 5544 5530 5531 5495 5495 5499 5501 5509 5518 5531 5540 5540 5547 5557 5567 5576 5588 5607 5617 5620 5623 5618 5618 5624 5626 5628 5631 5632 5629 5626 5622 5621
5410 5435 5403 5410 5431 5494 5481 5503 5514 5510 5512 5532 5531 5509 5443 5467 5468 5468 5472 5484 5497 5508 5517 5521 5528 5538 5548 5559 5569 5583 5599 5606 5610 5610 5611 5615 5618 5620 5624 5625 5624 5622 5619 5617
5357 5393 5393 5392 5396 5418 5479 5477 5526 5530 5542 5535 5472 5426 5432 5439 5442 5447 5451 5459 5470 5484 5496 5505 5514 5522 5532 5542 5551 5561 5575 5590 5596 5599 5602 5604 5608 5610 5612 5614 5616 5617 5617 5614
5334 5356 5371 5376 5388 5392 5414 5480 5473 5490 5502 5507 5453 5447 5429 5423 5417 5426 5431 5439 5447 5461 5476 5487 5498 5507 5517 5525 5534 5545 5556 5569 5581 5590 5592 5594 5595 5596 5599 5601 5605 5608 5608 5610
5318 5335 5353 5370 5337 5340 5370 5392 5421 5471 5501 5520 5452 5381 5352 5372 5380 5394 5406 5416 5427 5438 5452 5465 5477 5489 5500 5509 5517 5525 5539 5548 5561 5571 5579 5588 5588 5589 5591 5594 5597 5598 5599 5599
5308 5316 5329 5323 5322 5326 5322 5336 5363 5416 5482 5487 5431 5348 5334 5343 5352 5363 5381 5395 5407 5419 5433 5445 5459 5473 5483 5494 5503 5512 5521 5532 5541 5554 5564 5576 5580 5581 5583 5585 5588 5591 5593 5595
5299 5302 5319 5313 5316 5321 5303 5315 5334 5369 5409 5359 5411 5324 5317 5326 5334 5346 5359 5373 5386 5400 5413 5425 5436 5449 5463 5474 5486 5496 5505 5516 5525 5536 5549 5562 5570 5574 5577 5580 5582 5583 5584 5585
5281 5267 5273 5273 5253 5258 5272 5292 5303 5340 5361 5314 5316 5300 5299 5307 5314 5331 5345 5356 5370 5381 5393 5404 5415 5428 5442 5456 5469 5479 5490 5500 5511 5521 5534 5548 5558 5565 5568 5571 5574 5576 5576 5576
5270 5243 5246 5241 5248 5246 5248 5257 5269 5281 5291 5309 5272 5271 5274 5289 5299 5314 5326 5341 5353 5363 5375 5386 5398 5411 5424 5439 5452 5464 5474 5485 5498 5510 5522 5534 5544 5556 5560 5561 5566 5568 5567 5568
5267 5252 5249 5247 5269 5253 5233 5234 5244 5241 5241 5257 5261 5267 5269 5286 5294 5303 5314 5326 5332 5343 5356 5371 5382 5394 5408 5421 5436 5449 5461 5473 5484 5497 5510 5521 5534 5546 5551 5553 5557 5559 5559 5559
5249 5254 5264 5251 5256 5269 5231 5208 5217 5215 5214 5226 5234 5238 5259 5271 5280 5291 5303 5305 5315 5327 5340 5355 5369 5380 5391 5405 5419 5436 5449 5461 5474 5485 5499 5511 5521 5534 5542 5544 5548 5549 5551 5551
5226 5253 5259 5251 5262 5221 5207 5211 5210 5212 5215 5221 5230 5235 5244 5255 5270 5288 5286 5291 5301 5315 5328 5341 5354 5367 5378 5393 5408 5423 5437 5449 5462 5476 5489 5499 5508 5519 5533 5537 5539 5542 5545 5545
5231 5230 5232 5237 5219 5198 5198 5194 5191 5199 5209 5210 5218 5222 5232 5246 5272 5281 5273 5278 5288 5302 5315 5326 5340 5352 5367 5383 5399 5413 5427 5438 5451 5467 5479 5487 5495 5505 5516 5528 5533 5536 5538 5539
5227 5229 5244 5234 5221 5206 5176 5185 5195 5200 5211 5198 5202 5208 5216 5229 5243 5251 5256 5264 5277 5290 5303 5314 5328 5341 5355 5369 5388 5399 5413 5424 5439 5454 5465 5476 5483 5491 5500 5510 5521 5528 5531 5534
5205 5221 5225 5229 5209 5187 5173 5182 5191 5207 5188 5187 5189 5194 5203 5206 5214 5229 5241 5252 5264 5274 5288 5302 5315 5328 5340 5354 5363 5381 5398 5410 5425 5438 5452 5464 5471 5479 5487 5496 5506 5516 5523 5528
5176 5182 5195 5214 5208 5183 5167 5177 5174 5156 5160 5171 5177 5181 5184 5192 5203 5212 5222 5235 5248 5263 5278 5288 5302 5313 5325 5337 5347 5361 5376 5396 5412 5426 5440 5452 5460 5467 5476 5484 5493 5503 5512 5515
5177 5161 5171 5170 5172 5159 5155 5148 5147 5147 5149 5156 5157 5164 5170 5179 5191 5203 5214 5225 5236 5245 5258 5270 5288 5299 5311 5322 5334 5346 5360 5374 5389 5405 5426 5441 5449 5459 5464 5473 5480 5488 5497 5503
5177 5164 5171 5162 5162 5151 5153 5150 5148 5146 5145 5147 5149 5152 5159 5164 5174 5186 5196 5207 5217 5226 5235 5252 5267 5281 5293 5307 5318 5330 5343 5359 5372 5388 5411 5427 5439 5448 5454 5460 5466 5474 5481 5489
5170 5168 5162 5168 5161 5159 5156 5151 5143 5141 5141 5142 5146 5150 5152 5156 5163 5169 5178 5189 5199 5212 5225 5232 5239 5255 5271 5286 5299 5312 5324 5340 5357 5374 5397 5414 5424 5436 5441 5445 5454 5461 5468 5474
5166 5159 5169 5172 5149 5144 5149 5146 5141 5138 5136 5137 5138 5145 5148 5150 5156 5166 5175 5180 5188 5195 5205 5211 5219 5228 5242 5257 5273 5290 5309 5327 5342 5362 5384 5396 5410 5423 5428 5432 5441 5447 5454 5460